• In Czech Republic
  • List of Countries
  • For 7 days
  • Water Temperature
  • Satellite Maps
  • Weather Map
  • Weather Widgets
  • user-avatar
    Login

    Hourly Weather Escaldes-Engordany

    Today, 22 August, Tuesday

    Time Temperature Precipitation Wind Pressure Humidity
    00:00 +15°C° 0 mm 1 mps 643 mmHg 71%
    01:00 +15°C° 0 mm 1 mps 643 mmHg 71%
    02:00 +15°C° 0 mm 1 mps 642 mmHg 71%
    03:00 +15°C° 0 mm 1 mps 642 mmHg 71%
    04:00 +15°C° 0 mm 1 mps 642 mmHg 71%
    05:00 +15°C° 0 mm 1 mps 642 mmHg 70%
    06:00 +15°C° 0 mm 1 mps 643 mmHg 70%
    07:00 +19°C° 0 mm 1 mps 644 mmHg 60%
    08:00 +21°C° 0 mm 2 mps 645 mmHg 50%
    09:00 +25°C° 0 mm 2 mps 646 mmHg 39%
    10:00 +27°C° 0 mm 2 mps 646 mmHg 35%
    11:00 +28°C° 0 mm 2 mps 646 mmHg 31%
    12:00 +29°C° 0 mm 2 mps 646 mmHg 27%
    13:00 +29°C° 0 mm 2 mps 646 mmHg 28%
    14:00 +29°C° 0 mm 2 mps 646 mmHg 28%
    15:00 +29°C° 0 mm 2 mps 645 mmHg 28%
    16:00 +27°C° 0 mm 2 mps 645 mmHg 36%
    17:00 +25°C° 0 mm 1 mps 644 mmHg 44%
    18:00 +23°C° 0 mm 1 mps 644 mmHg 52%
    19:00 +22°C° 0 mm 1 mps 643 mmHg 57%
    20:00 +20°C° 0 mm 1 mps 643 mmHg 63%
    21:00 +18°C° 0 mm 1 mps 643 mmHg 69%
    22:00 +16°C° 0 mm 1 mps 643 mmHg 70%
    23:00 +16°C° 0 mm 1 mps 643 mmHg 70%

    Tomorrow, 23 August, Wednesday

    Time Temperature Precipitation Wind Pressure Humidity
    00:00 +15°C° 0 mm 0 mps 643 mmHg 70%
    01:00 +16°C° 0 mm 1 mps 642 mmHg 70%
    02:00 +15°C° 0 mm 1 mps 642 mmHg 70%
    03:00 +15°C° 0 mm 1 mps 642 mmHg 71%
    04:00 +15°C° 0.1 mm 1 mps 642 mmHg 70%
    05:00 +16°C° 0.1 mm 1 mps 643 mmHg 69%
    06:00 +15°C° 0.1 mm 0 mps 643 mmHg 69%
    07:00 +19°C° 0.1 mm 1 mps 644 mmHg 61%
    08:00 +21°C° 0.1 mm 1 mps 645 mmHg 53%
    09:00 +24°C° 0.1 mm 2 mps 645 mmHg 46%
    10:00 +25°C° 0 mm 2 mps 646 mmHg 43%
    11:00 +26°C° 0 mm 2 mps 646 mmHg 39%
    12:00 +27°C° 0 mm 3 mps 646 mmHg 36%
    13:00 +27°C° 0 mm 3 mps 646 mmHg 37%
    14:00 +27°C° 0 mm 3 mps 645 mmHg 37%
    15:00 +27°C° 0 mm 2 mps 645 mmHg 38%
    16:00 +25°C° 0.1 mm 2 mps 644 mmHg 44%
    17:00 +24°C° 0.1 mm 2 mps 644 mmHg 51%
    18:00 +22°C° 0.1 mm 1 mps 643 mmHg 57%
    19:00 +21°C° 0.1 mm 1 mps 643 mmHg 62%
    20:00 +19°C° 0.1 mm 1 mps 643 mmHg 66%
    21:00 +18°C° 0.1 mm 1 mps 642 mmHg 70%
    22:00 +16°C° 0.1 mm 1 mps 642 mmHg 70%
    23:00 +16°C° 0.1 mm 1 mps 642 mmHg 70%

    Day after tomorrow, 24 August, Thursday

    Time Temperature Precipitation Wind Pressure Humidity
    00:00 +16°C° 0.1 mm 1 mps 642 mmHg 70%
    01:00 +15°C° 0.1 mm 1 mps 642 mmHg 68%
    02:00 +15°C° 0.1 mm 1 mps 642 mmHg 67%
    03:00 +15°C° 0.1 mm 1 mps 642 mmHg 65%
    04:00 +15°C° 0 mm 1 mps 642 mmHg 64%
    05:00 +15°C° 0 mm 1 mps 642 mmHg 64%
    06:00 +15°C° 0 mm 1 mps 642 mmHg 63%
    07:00 +19°C° 0.1 mm 1 mps 643 mmHg 56%
    08:00 +20°C° 0.1 mm 2 mps 644 mmHg 49%
    09:00 +24°C° 0.1 mm 2 mps 645 mmHg 41%
    10:00 +25°C° 0.1 mm 2 mps 645 mmHg 39%
    11:00 +26°C° 0.1 mm 3 mps 645 mmHg 36%
    12:00 +28°C° 0.1 mm 3 mps 645 mmHg 33%
    13:00 +28°C° 0 mm 3 mps 645 mmHg 33%
    14:00 +28°C° 0 mm 3 mps 645 mmHg 32%
    15:00 +28°C° 0 mm 3 mps 644 mmHg 32%
    16:00 +26°C° 0 mm 3 mps 644 mmHg 38%
    17:00 +24°C° 0 mm 3 mps 643 mmHg 43%
    18:00 +21°C° 0 mm 2 mps 642 mmHg 49%
    19:00 +20°C° 0 mm 2 mps 642 mmHg 52%
    20:00 +18°C° 0 mm 2 mps 642 mmHg 56%
    21:00 +16°C° 0 mm 2 mps 641 mmHg 59%
    22:00 +16°C° 0 mm 2 mps 641 mmHg 57%
    23:00 +16°C° 0 mm 2 mps 641 mmHg 55%

    25 August, Friday

    Time Temperature Precipitation Wind Pressure Humidity
    00:00 +15°C° 0 mm 2 mps 641 mmHg 53%
    01:00 +15°C° 0 mm 2 mps 641 mmHg 53%
    02:00 +15°C° 0 mm 2 mps 640 mmHg 53%
    03:00 +15°C° 0 mm 2 mps 640 mmHg 53%
    04:00 +15°C° 0 mm 2 mps 640 mmHg 53%
    05:00 +15°C° 0 mm 2 mps 640 mmHg 53%
    06:00 +15°C° 0 mm 2 mps 640 mmHg 53%
    07:00 +18°C° 0 mm 2 mps 641 mmHg 46%
    08:00 +21°C° 0 mm 2 mps 642 mmHg 40%
    09:00 +25°C° 0 mm 3 mps 643 mmHg 33%
    10:00 +26°C° 0 mm 3 mps 643 mmHg 30%
    11:00 +27°C° 0 mm 4 mps 643 mmHg 28%
    12:00 +29°C° 0 mm 4 mps 644 mmHg 25%
    13:00 +28°C° 0 mm 4 mps 643 mmHg 26%
    14:00 +28°C° 0 mm 4 mps 643 mmHg 27%
    15:00 +28°C° 0 mm 4 mps 642 mmHg 27%
    16:00 +26°C° 0 mm 3 mps 642 mmHg 33%
    17:00 +24°C° 0 mm 3 mps 641 mmHg 39%
    18:00 +21°C° 0 mm 3 mps 640 mmHg 45%
    19:00 +20°C° 0 mm 2 mps 640 mmHg 48%
    20:00 +18°C° 0 mm 2 mps 640 mmHg 50%
    21:00 +17°C° 0 mm 2 mps 640 mmHg 53%
    22:00 +16°C° 0 mm 2 mps 639 mmHg 50%
    23:00 +16°C° 0 mm 2 mps 639 mmHg 48%

    26 August, Saturday

    Time Temperature Precipitation Wind Pressure Humidity
    00:00 +15°C° 0 mm 2 mps 639 mmHg 46%
    01:00 +15°C° 0.1 mm 2 mps 639 mmHg 48%
    02:00 +15°C° 0.1 mm 2 mps 639 mmHg 50%
    03:00 +14°C° 0.1 mm 2 mps 639 mmHg 52%
    04:00 +15°C° 0.1 mm 2 mps 639 mmHg 55%
    05:00 +15°C° 0.1 mm 2 mps 639 mmHg 58%
    06:00 +15°C° 0.1 mm 2 mps 639 mmHg 60%
    07:00 +18°C° 0 mm 2 mps 640 mmHg 54%
    08:00 +20°C° 0 mm 3 mps 641 mmHg 47%
    09:00 +24°C° 0 mm 3 mps 641 mmHg 40%
    10:00 +25°C° 0 mm 4 mps 642 mmHg 38%
    11:00 +27°C° 0 mm 5 mps 642 mmHg 37%
    12:00 +28°C° 0 mm 5 mps 642 mmHg 35%
    13:00 +27°C° 0.7 mm 5 mps 641 mmHg 40%
    14:00 +26°C° 0.7 mm 5 mps 640 mmHg 45%
    15:00 +26°C° 0.7 mm 5 mps 640 mmHg 50%
    16:00 +23°C° 0.6 mm 4 mps 640 mmHg 56%
    17:00 +22°C° 0.6 mm 3 mps 639 mmHg 61%
    18:00 +20°C° 0.6 mm 3 mps 639 mmHg 66%
    19:00 +19°C° 0.2 mm 2 mps 639 mmHg 70%
    20:00 +17°C° 0.2 mm 2 mps 639 mmHg 75%
    21:00 +16°C° 0.2 mm 2 mps 638 mmHg 79%
    22:00 +15°C° 0.1 mm 2 mps 638 mmHg 79%
    23:00 +15°C° 0.1 mm 2 mps 638 mmHg 80%

    27 August, Sunday

    Time Temperature Precipitation Wind Pressure Humidity
    00:00 +15°C° 0.1 mm 1 mps 638 mmHg 80%
    01:00 +14°C° 0 mm 1 mps 638 mmHg 79%
    02:00 +14°C° 0 mm 1 mps 638 mmHg 79%
    03:00 +14°C° 0 mm 1 mps 638 mmHg 79%
    04:00 +14°C° 0.2 mm 1 mps 638 mmHg 79%
    05:00 +14°C° 0.2 mm 1 mps 638 mmHg 79%
    06:00 +15°C° 0.2 mm 1 mps 638 mmHg 79%
    07:00 +17°C° 0.3 mm 2 mps 639 mmHg 72%
    08:00 +19°C° 0.3 mm 2 mps 639 mmHg 64%
    09:00 +21°C° 0.3 mm 3 mps 640 mmHg 57%
    10:00 +21°C° 0.6 mm 3 mps 640 mmHg 55%
    11:00 +22°C° 0.6 mm 3 mps 640 mmHg 54%
    12:00 +23°C° 0.6 mm 4 mps 640 mmHg 52%
    13:00 +23°C° 1.3 mm 4 mps 640 mmHg 52%
    14:00 +24°C° 1.3 mm 3 mps 640 mmHg 52%
    15:00 +24°C° 1.3 mm 3 mps 640 mmHg 53%
    16:00 +21°C° 1 mm 3 mps 640 mmHg 60%
    17:00 +20°C° 1 mm 2 mps 639 mmHg 67%
    18:00 +19°C° 1 mm 1 mps 639 mmHg 74%
    19:00 +18°C° 0.8 mm 1 mps 639 mmHg 79%
    20:00 +15°C° 0.8 mm 1 mps 639 mmHg 84%
    21:00 +14°C° 0.8 mm 1 mps 639 mmHg 88%
    22:00 +14°C° 0.1 mm 1 mps 639 mmHg 89%
    23:00 +13°C° 0.1 mm 1 mps 639 mmHg 89%
    Show more